Tracking 35036 objects as of 15-Aug-2026
HD Live streaming from Space Station
objects crossing your sky now

REPLICATOR-2

Track REPLICATOR-2 now!
10-day predictions


NORAD ID: 69927
Int'l Code: 2026-156BL
Launch date: July 7, 2026
Source: Germany (GER)
Launch site: AIR FORCE WESTERN TEST RANGE (AFWTR)
Your satellite tracking list
Your tracking list is empty




NASA's NSSDC Master Catalog

Two Line Element Set (TLE):
1 69927U 26156BL  26227.43543575  .00000335  00000-0  38364-4 0  9997
2 69927  97.7498 127.2732 0009331  38.8203 321.3685 14.92245903  5667
Source of the keplerian elements: AFSPC